星链-32236 (STARLINK-32236)

导读

STARLINK-32236是美国SpaceX公司星链(Starlink)星座的第二代卫星,于2024年8月10日发射入轨。星链星座旨在构建全球低轨宽带互联网,为偏远地区提供高速低延迟网络服务。该星配备增强型相控阵天线与激光星间链路,单星容量超100Gbps,运行于340-614公里近地轨道,具备自主轨道机动与避碰能力,退役后可再入大气层完全销毁,减少空间碎片影响,助力星链实现全球完整覆盖。

Basic Information
目录编号:
60418
目录名称:
STARLINK-32236
国际标识:
2024-141W
轨道中心:
EARTH
卫星名称:
星链-32236 (STARLINK-32236)
卫星全名:
星链-32236 (STARLINK-32236)
卫星状态:
在轨 (已飞行676 天)
发射日期:
2024-08-10 UTC
国别 :
美国 (US)
星等 :
--
Orbit Information
数据来源 国际轨道数据 AOE轨道数据
星历时间 2026-06-17T13:03:03+0800
11小时前
查看轨道信息
2026-06-15T05:00:00+0800
2天前
查看轨道信息
半长轴 6840.858km 6840.873km
偏心率 0.0001307 0.0001734
轨道倾角 53.161° 53.160°
近地点辐角 93.618° 93.773°
升交点赤经 139.194° 150.112°
平近点角 266.497° 318.544°
近地点 461.826km 461.549km
远地点 463.616km 463.923km
周期 93.848分钟 93.848分钟
每日圈数 15.343942 15.343891
Detailed Information
卫星平台:
Starlink v2.0 mini
运营商:
太空探索技术公司
运营商所在国:
美国
制造商(研发单位):
太空探索技术公司
制造商所在国:
美国
使用方式:
暂无
Satellite Introduction
星链(Starlink)计划是由太空探索技术公司(SpaceX)提出的一个巨型低轨卫星互联网星座项目,计划在2019年至2024年间在太空搭建由约1.2万颗卫星组成的“星链”网络,其中1584颗将部署在地球上空550千米处的近地轨道,并从2020年开始工作。该卫星仍在工作。
2D Orbit Map
3D Orbit Map
Orbit Altitude Analysis Chart
Orbit Inclination Analysis Chart
Orbit Comprehensive Analysis Chart
View Comprehensive Chart